{"data":{"norad_id":52365,"epoch":"2026-09-20T00:06:40.697280Z","epoch_age_seconds":102458,"freshness":"FRESH","line1":"1 52365U 22045AL  26263.00463770  .00006076  00000+0  19104-3 0  9996","line2":"2 52365  53.1605  27.6929 0001020  74.1929 285.9186 15.34361188245373","mean_motion":15.34361188,"eccentricity":0.000102,"inclination_deg":53.1605,"raan_deg":27.6929,"arg_perigee_deg":74.1929,"mean_anomaly_deg":285.9186,"bstar":0.00019104,"rev_number":24537,"period_min":93.850131980789,"perigee_km":462.12082261081,"apogee_km":463.51637755322,"semimajor_km":6840.955600082,"source":"CELESTRAK","updated_at":"2026-09-20T09:00:40.027485Z"}}